Peru, IL

8:08 AM CDT on September 24, 2017 (GMT -0500)
Illinois Valley Regional-Duncan

Weather History for KVYS - October, 2012

Change the Weather History Date:

Thursday, October 4, 2012

  Actual Average Record
Temperature  
Mean Temperature 60 °F -  
Max Temperature 73 °F 71 °F 89 °F (2005)
Min Temperature 46 °F 44 °F 27 °F (1989)
Degree Days  
Heating Degree Days 5    
Growing Degree Days 10 (Base 50)    
Moisture  
Dew Point 50 °F    
Average Humidity 77    
Maximum Humidity 90    
Minimum Humidity 52    
Precipitation  
Precipitation 0.18 in - - ()
Sea Level Pressure  
Sea Level Pressure 30.07 in    
Wind  
Wind Speed 10 mph (SW)    
Max Wind Speed 21 mph    
Max Gust Speed 26 mph    
Visibility 10 miles    
Events Rain , Thunderstorm    
Averages and records for this station are not official NWS values.
T = Trace of Precipitation, MM = Missing Value Source: NWS Daily Summary

Daily Weather History Graph

Daily Weather History Graph

Search for Another Location

Airport or City:

Trip Planner

Search our weather history database for the weather conditions in past years. The results will help you decide how hot, cold, wet, or windy it might be!

Date:

Astronomy

Oct. 04, 2012 Rise Set
Actual Time 6:57 AM CDT 6:32 PM CDT
Civil Twilight 6:29 AM CDT 7:00 PM CDT
Nautical Twilight 5:57 AM CDT 7:32 PM CDT
Astronomical Twilight 5:25 AM CDT 8:04 PM CDT
Moon 9:05 PM CDT (10/4) 11:16 AM CDT (10/4)
Length of Visible Light 12h 30m
Length of Day
11h 35m
Waning Gibbous, 82% of the Moon is Illuminated
Oct 4
Waning Gibbous
Oct 8
Last Quarter
Oct 15
New
Oct 21
First Quarter
Oct 29
Full

Hourly Weather History & Observations

Time (CDT) Temp. Windchill Dew Point Humidity Pressure Visibility Wind Dir Wind Speed Gust Speed Precip Events Conditions
12:15 AM 58.6 °F - 52.2 °F 79% 30.03 in 10.0 mi South 5.8 mph - N/A   Overcast
12:35 AM 58.6 °F - 51.8 °F 78% 30.04 in 10.0 mi South 6.9 mph - N/A   Overcast
12:55 AM 58.1 °F - 51.6 °F 79% 30.04 in 10.0 mi South 9.2 mph - N/A   Overcast
1:15 AM 57.6 °F - 50.9 °F 78% 30.04 in 10.0 mi South 8.1 mph - N/A   Overcast
1:35 AM 57.6 °F - 50.2 °F 76% 30.04 in 10.0 mi South 8.1 mph - N/A   Mostly Cloudy
1:55 AM 56.3 °F - 50.2 °F 80% 30.04 in 10.0 mi South 5.8 mph - N/A   Scattered Clouds
2:15 AM 56.3 °F - 50.0 °F 79% 30.04 in 10.0 mi SSW 6.9 mph - N/A   Clear
2:35 AM 55.6 °F - 49.8 °F 81% 30.04 in 10.0 mi South 6.9 mph - N/A   Clear
2:55 AM 54.1 °F - 49.5 °F 84% 30.04 in 10.0 mi South 8.1 mph - N/A   Clear
3:15 AM 54.7 °F - 49.5 °F 83% 30.04 in 10.0 mi South 4.6 mph - N/A   Clear
3:35 AM 54.7 °F - 49.3 °F 82% 30.04 in 10.0 mi South 9.2 mph - N/A   Clear
3:55 AM 55.6 °F - 49.6 °F 80% 30.04 in 10.0 mi South 8.1 mph - N/A   Clear
4:15 AM 54.7 °F - 50.0 °F 84% 30.04 in 10.0 mi South 9.2 mph - N/A   Clear
4:35 AM 54.7 °F - 50.0 °F 84% 30.05 in 10.0 mi South 9.2 mph - N/A   Clear
4:55 AM 53.6 °F - 49.5 °F 86% 30.04 in 10.0 mi South 8.1 mph - N/A   Clear
5:15 AM 53.6 °F - 49.1 °F 85% 30.04 in 10.0 mi South 5.8 mph - N/A   Clear
5:35 AM 52.7 °F - 49.1 °F 88% 30.04 in 10.0 mi South 6.9 mph - N/A   Clear
5:55 AM 51.4 °F - 48.4 °F 89% 30.04 in 10.0 mi South 6.9 mph - N/A   Clear
6:15 AM 52.3 °F - 49.1 °F 89% 30.04 in 10.0 mi SSW 8.1 mph - N/A   Clear
6:35 AM 51.8 °F - 48.4 °F 88% 30.04 in 10.0 mi South 8.1 mph - N/A   Clear
6:55 AM 50.9 °F - 48.2 °F 90% 30.04 in 10.0 mi South 8.1 mph - N/A   Clear
7:15 AM 52.7 °F - 49.8 °F 90% 30.04 in 10.0 mi South 9.2 mph - N/A   Clear
7:35 AM 54.0 °F - 51.1 °F 90% 30.05 in 10.0 mi South 9.2 mph - N/A   Clear
7:55 AM 55.6 °F - 51.6 °F 87% 30.05 in 10.0 mi SSW 9.2 mph - N/A   Clear
8:15 AM 56.8 °F - 52.3 °F 85% 30.05 in 10.0 mi SSW 10.4 mph - N/A   Clear
8:35 AM 58.8 °F - 53.6 °F 83% 30.05 in 10.0 mi SSW 10.4 mph - N/A   Clear
8:55 AM 60.3 °F - 54.5 °F 81% 30.04 in 10.0 mi South 11.5 mph - N/A   Clear
9:15 AM 62.4 °F - 55.6 °F 78% 30.04 in 10.0 mi SSW 13.8 mph - N/A   Clear
9:35 AM 64.6 °F - 55.9 °F 74% 30.03 in 10.0 mi SSW 11.5 mph - N/A   Scattered Clouds
9:55 AM 65.5 °F - 56.3 °F 72% 30.05 in 10.0 mi SW 13.8 mph - N/A   Scattered Clouds
10:15 AM 66.9 °F - 55.9 °F 68% 30.04 in 10.0 mi SW 15.0 mph 21.9 mph N/A   Clear
10:35 AM 68.4 °F - 56.8 °F 67% 30.04 in 10.0 mi SW 15.0 mph 18.4 mph N/A   Clear
10:55 AM 68.9 °F - 56.5 °F 65% 30.03 in 10.0 mi SW 15.0 mph - N/A   Clear
11:15 AM 70.0 °F - 57.0 °F 63% 30.03 in 10.0 mi WSW 12.7 mph 19.6 mph N/A   Clear
11:35 AM 71.4 °F - 56.8 °F 60% 30.02 in 10.0 mi SW 11.5 mph - N/A   Clear
11:55 AM 72.7 °F - 57.2 °F 58% 30.03 in 10.0 mi WSW 16.1 mph 24.2 mph N/A Thunderstorm Clear
12:15 PM 72.7 °F - 56.3 °F 56% 30.03 in 10.0 mi WSW 12.7 mph 20.7 mph N/A   Clear
12:35 PM 71.8 °F - 55.9 °F 57% 30.03 in 10.0 mi WSW 15.0 mph 18.4 mph N/A   Scattered Clouds
12:55 PM 73.9 °F - 56.1 °F 54% 30.03 in 10.0 mi WSW 16.1 mph 21.9 mph N/A   Scattered Clouds
1:15 PM 72.9 °F - 55.6 °F 55% 30.03 in 10.0 mi WSW 17.3 mph 24.2 mph N/A   Scattered Clouds
1:35 PM 72.7 °F - 54.3 °F 52% 30.03 in 10.0 mi West 18.4 mph 24.2 mph N/A   Scattered Clouds
1:55 PM 71.1 °F - 52.7 °F 52% 30.03 in 10.0 mi WSW 15.0 mph 26.5 mph N/A   Scattered Clouds
2:15 PM 69.4 °F - 53.4 °F 57% 30.03 in 10.0 mi West 18.4 mph - N/A Rain Light Rain
2:35 PM 67.1 °F - 55.9 °F 67% 30.04 in 7.0 mi WSW 17.3 mph 25.3 mph N/A Rain Light Rain
2:55 PM 65.1 °F - 48.7 °F 55% 30.05 in 10.0 mi WNW 20.7 mph 26.5 mph N/A   Clear
3:15 PM 63.3 °F - 47.8 °F 57% 30.07 in 10.0 mi West 15.0 mph 21.9 mph N/A   Clear
3:35 PM 61.2 °F - 47.3 °F 60% 30.07 in 10.0 mi West 13.8 mph 24.2 mph N/A   Clear
3:55 PM 60.6 °F - 45.9 °F 58% 30.07 in 10.0 mi West 13.8 mph 24.2 mph N/A   Clear
4:15 PM 59.5 °F - 46.6 °F 62% 30.09 in 10.0 mi WNW 20.7 mph 26.5 mph N/A   Scattered Clouds
4:35 PM 55.0 °F - 47.8 °F 77% 30.13 in 5.0 mi West 13.8 mph 21.9 mph N/A Rain Rain
4:55 PM 52.7 °F - 48.0 °F 84% 30.08 in 3.0 mi NW 6.9 mph - 0.06 in Rain , Thunderstorm Heavy Thunderstorms and Rain
5:15 PM 52.0 °F - 48.6 °F 88% 30.10 in 5.0 mi West 10.4 mph 20.7 mph 0.06 in Rain Heavy Rain
5:35 PM 51.3 °F - 48.4 °F 90% 30.11 in 5.0 mi West 10.4 mph - 0.11 in Rain Light Rain
5:55 PM 51.3 °F - 48.6 °F 90% 30.12 in 10.0 mi West 13.8 mph - 0.12 in   Overcast
6:15 PM 51.3 °F - 48.2 °F 89% 30.11 in 10.0 mi West 10.4 mph - N/A Thunderstorm Overcast
6:35 PM 51.6 °F - 48.4 °F 89% 30.11 in 10.0 mi West 9.2 mph - N/A   Overcast
6:55 PM 51.6 °F - 48.6 °F 89% 30.12 in 10.0 mi West 11.5 mph - N/A   Overcast
7:15 PM 51.3 °F - 48.0 °F 89% 30.12 in 10.0 mi West 11.5 mph - N/A   Overcast
7:35 PM 51.3 °F - 47.3 °F 86% 30.13 in 10.0 mi West 11.5 mph - N/A   Overcast
7:55 PM 51.1 °F - 47.3 °F 87% 30.13 in 10.0 mi West 10.4 mph - N/A   Overcast
8:15 PM 51.3 °F - 46.4 °F 83% 30.12 in 10.0 mi West 9.2 mph - N/A   Overcast
8:35 PM 51.3 °F - 45.9 °F 82% 30.12 in 10.0 mi West 10.4 mph 18.4 mph N/A   Overcast
8:55 PM 51.8 °F - 46.4 °F 82% 30.13 in 10.0 mi West 11.5 mph - N/A   Overcast
9:15 PM 50.9 °F - 45.5 °F 82% 30.13 in 10.0 mi West 10.4 mph - N/A   Overcast
9:35 PM 50.0 °F - 44.8 °F 82% 30.13 in 10.0 mi West 11.5 mph - N/A   Scattered Clouds
9:55 PM 49.1 °F - 44.6 °F 84% 30.14 in 10.0 mi West 9.2 mph - N/A Thunderstorm Clear
10:15 PM 47.8 °F - 44.1 °F 87% 30.15 in 10.0 mi West 10.4 mph - N/A   Clear
10:35 PM 47.8 °F - 43.9 °F 86% 30.15 in 10.0 mi West 9.2 mph - N/A   Clear
10:55 PM 47.7 °F - 43.2 °F 84% 30.16 in 10.0 mi West 11.5 mph - N/A   Clear
11:15 PM 47.3 °F - 42.8 °F 84% 30.15 in 10.0 mi West 10.4 mph - N/A   Clear
11:35 PM 47.1 °F - 42.3 °F 83% 30.15 in 10.0 mi WNW 8.1 mph - N/A   Clear
11:55 PM 46.4 °F 41.9 °F 41.5 °F 83% 30.15 in 10.0 mi West 9.2 mph - N/A   Clear